Saipan, MP

6:50 PM ChST on April 28, 2017 (GMT +1000)
Saipan International

Weather History for PGSN - June, 2013

Change the Weather History Date:

Tuesday, June 4, 2013

  Actual Average Record
Temperature  
Mean Temperature 81 °F -  
Max Temperature 87 °F 85 °F 89 °F (1997)
Min Temperature 75 °F 76 °F 48 °F (1998)
Cooling Degree Days 16    
Growing Degree Days 31 (Base 50)    
Moisture  
Dew Point 75 °F    
Average Humidity 86    
Maximum Humidity 96    
Minimum Humidity 70    
Precipitation  
Precipitation 0.66 in - - ()
Sea Level Pressure  
Sea Level Pressure 29.95 in    
Wind  
Wind Speed 12 mph (ESE)    
Max Wind Speed 24 mph    
Max Gust Speed 40 mph    
Visibility 8 miles    
Events Rain    
Averages and records for this station are not official NWS values.
T = Trace of Precipitation, MM = Missing Value Source: NWS Daily Summary

Daily Weather History Graph

Daily Weather History Graph

Search for Another Location

Airport or City:

Trip Planner

Search our weather history database for the weather conditions in past years. The results will help you decide how hot, cold, wet, or windy it might be!

Date:

Astronomy

Jun. 04, 2013 Rise Set
Actual Time 5:45 AM ChST 6:44 PM ChST
Civil Twilight 5:22 AM ChST 7:08 PM ChST
Nautical Twilight 4:54 AM ChST 7:36 PM ChST
Astronomical Twilight 4:26 AM ChST 8:04 PM ChST
Moon 2:19 AM ChST (6/4) 3:05 PM ChST (6/4)
Length of Visible Light 13h 45m
Length of Day
12h 58m
Waning Crescent, 19% of the Moon is Illuminated
Jun 4
Waning Crescent
Jun 9
New
Jun 17
First Quarter
Jun 23
Full
Jun 30
Last Quarter

Hourly Weather History & Observations

Time (ChST) Temp. Heat Index Dew Point Humidity Pressure Visibility Wind Dir Wind Speed Gust Speed Precip Events Conditions
12:54 AM 79.0 °F - 75.0 °F 88% 29.95 in 10.0 mi East 8.1 mph - N/A   Clear
1:54 AM 80.1 °F 85.1 °F 75.0 °F 85% 29.94 in 10.0 mi East 8.1 mph - N/A   Scattered Clouds
2:54 AM 78.1 °F - 73.9 °F 87% 29.93 in 10.0 mi East 5.8 mph - N/A   Scattered Clouds
3:54 AM 79.0 °F - 75.0 °F 88% 29.93 in 10.0 mi East 8.1 mph - N/A   Scattered Clouds
4:54 AM 80.1 °F 85.1 °F 75.0 °F 85% 29.93 in 10.0 mi East 10.4 mph - N/A   Clear
5:54 AM 80.1 °F 85.1 °F 75.0 °F 85% 29.94 in 10.0 mi East 11.5 mph - N/A   Scattered Clouds
6:54 AM 81.0 °F 86.2 °F 73.9 °F 79% 29.96 in 10.0 mi East 10.4 mph - N/A   Clear
7:54 AM 81.0 °F 87.9 °F 77.0 °F 88% 29.97 in 10.0 mi ESE 9.2 mph - 0.09 in   Mostly Cloudy
8:54 AM 82.0 °F 90.2 °F 77.0 °F 85% 29.98 in 10.0 mi East 16.1 mph 21.9 mph 0.01 in   Scattered Clouds
9:54 AM 84.9 °F 96.6 °F 78.1 °F 80% 29.99 in 10.0 mi East 15.0 mph 20.7 mph N/A   Clear
10:54 AM 86.0 °F 96.0 °F 75.9 °F 72% 29.99 in 10.0 mi ESE 15.0 mph 25.3 mph N/A   Scattered Clouds
11:54 AM 86.0 °F 96.9 °F 77.0 °F 74% 29.97 in 10.0 mi East 17.3 mph 23.0 mph N/A   Mostly Cloudy
12:02 PM 87.8 °F 99.7 °F 77.0 °F 70% 29.91 in 10.0 mi East 20.7 mph 25.3 mph N/A   Mostly Cloudy
12:13 PM 78.8 °F - 75.2 °F 89% 29.91 in 10.0 mi ESE 13.8 mph 27.6 mph 0.06 in   Mostly Cloudy
12:54 PM 84.0 °F 93.7 °F 77.0 °F 79% 29.96 in 10.0 mi East 16.1 mph 20.7 mph 0.09 in   Scattered Clouds
1:54 PM 80.1 °F 85.1 °F 75.0 °F 85% 29.96 in 4.0 mi ESE 20.7 mph 33.4 mph 0.00 in Rain Light Rain
2:54 PM 82.9 °F 90.2 °F 75.0 °F 77% 29.94 in 10.0 mi ESE 12.7 mph 20.7 mph 0.03 in   Scattered Clouds
3:27 PM 84.2 °F 92.3 °F 75.2 °F 74% 29.88 in 10.0 mi ESE 15.0 mph 21.9 mph N/A   Scattered Clouds
3:54 PM 78.1 °F - 75.9 °F 93% 29.95 in 6.0 mi East 17.3 mph 23.0 mph 0.00 in Rain Light Rain
4:35 PM 77.0 °F - 75.2 °F 94% 29.89 in 1.5 mi East 18.4 mph 26.5 mph 0.07 in Rain Heavy Rain
4:42 PM 75.2 °F - 73.4 °F 94% 29.89 in 7.0 mi East 17.3 mph 26.5 mph 0.34 in Rain Rain
4:54 PM 77.0 °F - 75.9 °F 96% 29.96 in 7.0 mi SE 15.0 mph 21.9 mph 0.36 in Rain Light Rain
5:44 PM 77.0 °F - 75.2 °F 94% 29.91 in 1.5 mi ESE 19.6 mph 35.7 mph 0.00 in Rain Heavy Rain
5:52 PM 75.2 °F - 73.4 °F 94% 29.91 in 5.0 mi ESE 24.2 mph 40.3 mph 0.06 in Rain Rain
5:54 PM 75.0 °F - 73.9 °F 96% 29.97 in 5.0 mi ESE 24.2 mph 40.3 mph 0.06 in Rain Rain
6:54 PM 77.0 °F - 75.0 °F 94% 29.99 in 10.0 mi ESE 13.8 mph - 0.01 in   Mostly Cloudy
7:54 PM 78.1 °F - 75.9 °F 93% 30.01 in 8.0 mi East 10.4 mph - 0.00 in Rain Light Rain
8:54 PM 78.1 °F - 75.9 °F 93% 30.02 in 10.0 mi East 10.4 mph - 0.01 in   Scattered Clouds
9:54 PM 79.0 °F - 75.9 °F 90% 30.03 in 10.0 mi East 10.4 mph - N/A   Mostly Cloudy
10:54 PM 79.0 °F - 73.9 °F 84% 30.02 in 10.0 mi ESE 13.8 mph - N/A   Scattered Clouds
11:54 PM 79.0 °F - 73.9 °F 84% 30.01 in 10.0 mi East 13.8 mph - N/A   Scattered Clouds